Погода в Слуцке

Погода в Слуцке : погода сейчас, прогноз погоды и архив. Всё, что Вы хотите узнать о погоде в Слуцке!

Хотите узнать прогноз погоды в Слуцке? Тогда Вам сюда: Погода в Слуцке

Поиск расширенной информации на нашем сайте:

Другие новости

Новости СМИ2

Главная страница сайта

Новости сайта

03.07.2017

Напоминаем, что на нашем специализированном сайте Метеоцентр.Азия вы можете получить высокодетализированные автоматические прогнозы погоды по пунктам России, СНГ и мира в авиационном формате (включающие направление и скорость ветра, видимость, явления погоды, количество и форму облачности, нижнюю и верхнюю границу облачности).

Рекомендуем: Как выбрать свадебный торт свадебный.

Погода в Слуцке - сегодня

Время (UTC), дата Ветер
(°,м/с) 
Видим.   Явления Облачность Т
(°С)
Тd
(°С)
f(%) Тe
(°С)
Pmin
(гПа)
dP
(гПа)
Po
(мм)
O2
(г/м3)
Тmin Tmax R s Состояние
почвы
00 18.07.17 230 (ЮЗ) 10 км    3/3 600 м 
[Sc]
+13.2 +12.5 96 +19  1019.3  0.7  750  286           
03 18.07.17 тихо ()   11000 м  в посл. час ливневой дождь  9/9 1200 м 
[Sc]
+14.2 +12.5 90 +19  1019.3  0.1  750  285      0.0     
06 18.07.17 320 (СЗ) 15000 м  {ливн. осадки}  5/5 1000 м 
[Sc]
+16.4 +11.7 74 +20  1020.4  1.2  751  283  +12.4    0.0     
09 18.07.17 240 (ЮЗ) 20000 м    8/8 600 м 
[Cu med, cong]
+18.4 +9 54 +19  1020  -0.2  751  282           
12 18.07.17 240 (ЮЗ) 20000 м    8/8 600 м 
[Cu med, cong]
+20.8 +10.7 52 +23  1019.4  -0.5  750  279           
15 18.07.17 320 (СЗ) 2{10}  25000 м    8/8 600 м 
[Sc]
+20.6 +11.4 56 +24  1019.1  -0.3  750  279           
18 18.07.17 250 (З) 18000 м    3/3 600 м 
[Sc]
+18.6 +13.9 74 +27  1019.1  -0.1  750  280    +21.7       
21 18.07.17 тихо ()   12000 м    ясно 
+14.4 +11.2 81 +17  1019.8  0.4  750  285           
00 19.07.17 тихо ()   12000 м    ясно 
+12.5 +10.6 88 +14  1020  0.1  750  287           
03 19.07.17 тихо ()   8000 м  дымка  6/0 средняя 
[Ac trans]
+10.8 +9.4 91 +11  1020.5  0.3  751  289           
06 19.07.17 320 (СЗ) 13000 м    3/0 средняя 
[Ac trans]
+16.5 +12.3 76 +22  1020.3  0.2  751  283  +10.1         
09 19.07.17 200 (Ю) 16000 м    6/6 600 м 
[Cu med, cong]
+20.1 +12.3 61 +24  1019.4  -0.6  750  279           
12 19.07.17 300 (СЗ) 18000 м    8/5 600 м средняя 
[Cu med, cong|Ac trans]
+22.4 +9.4 44 +23  1018.5  -0.8  750  278           
15 19.07.17 280 (З) 20000 м    6/5 600 м средняя 
[Cu med, cong|Ac trans]
+22.8 +11.7 50 +26  1017.1  -1.4  749  276           
18 19.07.17 тихо ()   15000 м    4/0 средняя, верхняя 
[Ac lent|Ci sp]
+20.4 +15.7 74 +30  1017.2  749  277    +24.1       
21 19.07.17 080 (В) 15000 м    5/0 средняя 
[Ac und]
+15.8 +12.7 82 +22  1017.1  -0.4  748  283           
00 20.07.17 тихо ()   10 км    3/0 верхняя 
[Ci fib]
+11.8 +10.9 94 +14  1016.6  -0.7  748  287           
03 20.07.17 тихо ()   6000 м  дымка  3/0 верхняя 
[Ci fib]
+10.2 +9.5 95 +11  1015.9  -0.8  747  289           
06 20.07.17 тихо ()   14000 м    6/0 верхняя 
[Cs]
+19.6 +13.5 68 +26  1014.5  -0.7  747  278  +9.5         
09 20.07.17 200 (Ю) 14000 м    10/0 средняя 
[As trans]
+22 +15 64 +31  1013.9  -0.5  746  275           
12 20.07.17 190 (Ю) 16000 м    9/6 600 м средняя 
[Cu Sc|Ac cast]
+23.5 +12.9 51 +29  1012.8  -1  746  274           
15 20.07.17 190 (Ю) 15000 м    3/3 600 м 
[Cu Sc]
+24.3 +13.5 51 +31  1011.8  -1  745  273           
18 20.07.17 тихо ()   14000 м    3/0 средняя, верхняя 
[Ac lent|Ci sp]
+22.1 +16.7 71 +34  1011.5  -0.4  745  274    +24.9       
21 20.07.17 тихо ()   12000 м    ясно 
+16.9 +15.1 89 +26  1012.6  0.7  745  280           
00 21.07.17 тихо ()   7000 м  дымка  ясно 
+16.7 +15.3 91 +26  1012.2  -0.3  745  280           
Время (UTC), дата Ветер
(°,м/с) 
Видим.   Явления Облачность Т
(°С)
Тd
(°С)
f(%) Тe
(°С)
Pmin
(гПа)
dP
(гПа)
Po
(мм)
O2
(г/м3)
Тmin Tmax R s Состояние
почвы

Для получения пояснительной информации подведите курсор к названию столбца.

ПОГОДА в Слуцке - архив

Всё, что Вы хотите узнать о погоде в Слуцке - удобно и подробно!

Выберите нужную дату (начиная с 1 января 2015* года) и нажмите кнопку "Найти".
Будут отображены архивные сводки погоды по пункту Слуцк, начиная с указанной даты.


Отображать данные в формате CSV (для использования в таблицах Excel)


Внимание! Наш архив погоды предназначен исключительно для личного некоммерческого использования в познавательных целях. Если Вам необходимы официальные справки о состоянии погоды (для производственных, юридических, коммерческих и т.п. целей), обращайтесь в органы Росгидромета.

*Примечание: данная дата относится к архиву по метеостанциям СССР (Россия, СНГ, Балтия).
Архив по метеостанциям Зарубежной Европы и Азии (кроме Китая) хранится 10 дней, по другим регионам земного шара (Китай, Африка, Америка, Австралия, Океания) - 1 день.

Слуцк - район местоположения метеостанции


Название, широта, долгота, высота метеостанции:
Слуцк 53°ш. 27.6°д. 162 м над ур. моря [Беларусь]

Дополнительная информация

В oтличие oт бoльшинства пoгoдных сайтoв мы публикуем пoдрoбную метеoинфoрмацию в детальнoм прoфессиoнальнoм фoрмате.

Характеристики температуры и влажнoсти вoздуха измеряются на высoте 2 м в тени вдали oт зданий и деревьев.
Скoрoсть ветра измеряется на высoте 10 м (на урoвне рoста челoвека скoрoсть ветра ниже в 1.5-2 раза). Если метеoстанция нахoдится в гoрoде или в лесу, тo скoрoсть ветра занижена на 2-4 м/с пo сравнению с oткрытым местoм. Скoрoсть ветра над акватoриями крупных рек и oзёр, а также на вершинах хoлмoв на 2-5 м/с выше, чем в oбычных услoвиях.
Атмoсфернoе давление в разных тoчках местнoсти мoжет значительнo oтличаться oт давления на метеoстанции, в зависимoсти oт услoвий рельефа (при пoдъёме на 10 м давление пoнижается примернo на 1 мм рт.ст.).